STARLINK-11598, 63113

Orbit data source: Space-Track

STARLINK-11598, 63113 is a payload satellite owned by SpaceX/Seattle (US) in LEO that was launched on Thu, 27 Feb 2025 UTC via an FALCON 9 launch vehicle from the Air Force Eastern Test Range (AFETR). Payload-class satellites include a variety of spacecraft equipped with specific instruments for various scientific and technological missions. These include communications satellites like Starlink; space stations such as the ISS; scientific satellites like the Hubble; Earth observation satellites from companies like Planet Labs, Umbra, and HawkEye 360; GPS; miniature CubeSats for education and research; and military/defense satellites.

Loading next visibility...
Identifier
63113, 2025-039K
Orbit
LEO
Last TLE update
7 hours ago
Origin
Manufacturer
SpaceX/Seattle
Mission
Operational Commercial Communications
Bus & Motor
STARLINK V2M, Unknown motor
Mass
730 kg wet, ~700 kg dry
Launch date (UTC)
2025-02-27 (4 months ago)
Launch vehicle
FALCON 9
Launch site
Air Force Eastern Test Range (AFETR)
Object type
Payload
Rocket body
Debris
Shape & HBR
Box + 2 Pan, 29 m
Radar Cross Section
36.964 m², Large (>1 m²)

Expand to show TLE details & history

TLE from 7 hours ago
0 STARLINK-11598
1 63113U 25039K   25182.08422774  .00242991  00000-0  18389-2 0  9993
2 63113  42.9986 313.5115 0000965  38.0371 322.0564 15.70884496 20764
Epoch: 2025-07-01T02:01Z
TLE epoch observation values (Epoch: 2025-07-01T02:01:17.276Z)
Latitude
-0.00007°
Longitude
3.80468°
Altitude
355.626 km
Speed
7.698 km/s
True Right ascension
20h 54m 02s
True Declination
0° 00' 00"
Sunlit
Object was in full shadow at epoch
Visualization orbit readout
Latitude
-39.80296°
Longitude
-60.73569°
Altitude
368.098 km
Speed
7.689 km/s
Apparent Right ascension
12h 57m 57s
Apparent Declination
-56° 42' 07"
Sunlit
Object is in full shadow
Visualization observer readout
Local Sidereal Time
20:59:40
Azimuth
225.656° WSW
Elevation
-48.555°
Doppler factor
1
Orbital elements
Apogee altitude
359 km
Perigee altitude
357.7 km
Semi-major axis
6,736.487 km
Eccentricity
0.0001
Inclination
42.9986°
RAAN
313.5115°
Arg. of periapsis
38.0371°
True anomaly
Unknown
Mean anomaly
322.0564°
Eccentric anomaly
Unknown
Mean motion
3.92548 °/min
Orbital period
91.71 mins
BSTAR
0.0018389
Loading maneuver chart data...
Loading SW <> Apogee altitude chart data...
Loading historical data...
Loading historical data...
Loading historical data...
Loading historical data...
Loading historical data...
Loading historical data...
Loading historical data...

STARLINK-11598 Visibility forecast

Observer location: undefined°, undefined°

Span
Click to sort rows by Start time (UTC) header in descending order
Start Az.
Max El. time (UTC)
Max El. Az.
Max El.
End time (UTC)
End Az.
4 mins2025-07-01 12:57:24.589Z236.79° WSW2025-07-01 12:59:24.589Z109.156° ESE40.351°2025-07-01 13:01:24.589Z76.274° E
4 mins2025-07-01 14:33:24.589Z288.194° WNW2025-07-01 14:35:24.589Z8.751° NNE34.826°2025-07-01 14:37:24.589Z65.916° ENE
4 mins2025-07-01 16:10:24.589Z304.582° NW2025-07-01 16:11:24.589Z357.403° N40.655°2025-07-01 16:14:24.589Z94.18° ESE
|